Regional Weather Roundup
Issued by NWS Charleston, WV

Home | Current Version | Previous Version | Graphics & Text | Print | Product List | Glossary On
Versions: 1 2 3 4 5 6 7 8 9 10 11 12 13 14 15 16 17 18 19 20 21 22 23 24 25 26 27 28 29 30 31 32 33 34 35 36 37 38 39 40 41 42 43 44 45 46 47 48 49 50
000
ASUS41 KRLX 260010
RWRRLX
West Virginia Regional Weather Roundup
National Weather Service Charleston WV
800 PM EDT FRI JUL 25 2014

Note: "fair" indicates few or no clouds below 12,000 feet with no
significant weather and/or obstructions to visibility.

WVZ003-260100-
Northern Panhandle of West Virginia

CITY           SKY/WX    TMP DP  RH WIND       PRES   REMARKS
WHEELING       CLEAR     72  54  53 SW5       30.01F
$$

WVZ009-260100-
Northwest West Virginia

CITY           SKY/WX    TMP DP  RH WIND       PRES   REMARKS
PARKERSBURG    NOT AVBL
$$

WVZ006-260100-
Western West Virginia

CITY           SKY/WX    TMP DP  RH WIND       PRES   REMARKS
HUNTINGTON     PTCLDY    73  58  59 CALM      30.01F
$$

WVZ015-260100-
West Central West Virginia

CITY           SKY/WX    TMP DP  RH WIND       PRES   REMARKS
CHARLESTON     PTCLDY    75  63  66 CALM      30.02F
$$

WVZ031-260100-
North Central West Virginia

CITY           SKY/WX    TMP DP  RH WIND       PRES   REMARKS
CLARKSBURG     CLEAR     71  55  56 S6        30.04S
MORGANTOWN     CLEAR     76  53  44 SW3       30.04F
$$

WVZ035-042-045-260100-
South Central West Virginia

CITY           SKY/WX    TMP DP  RH WIND       PRES   REMARKS
BECKLEY        CLEAR     71  52  50 SW7       30.10S
BLUEFIELD      CLEAR     73  59  61 W3        30.12F
LEWISBURG      CLEAR     77  54  44 CALM      30.09S
$$

WVZ047-260100-
Northern Mountains of West Virginia

CITY           SKY/WX    TMP DP  RH WIND       PRES   REMARKS
ELKINS         PTCLDY    73  58  59 NW5       30.08S
$$

WVZ052-260100-
Eastern Panhandle of West Virginia

CITY           SKY/WX    TMP DP  RH WIND       PRES   REMARKS
MARTINSBURG    CLEAR     76  58  53 CALM      30.02R
PETERSBURG     PTCLDY    78  53  41 CALM      30.02S
$$


USA.gov is the U.S. government's official web portal to all federal, state and local government web resources and services.